BREEZE-M DEB, 41321

Orbit data source: Space-Track

BREEZE-M DEB, 41321 is space debris in HEO originally from a launch on Thu, 17 May 2012 UTC launched from the Tyuratam Missile And Space Complex (TTMTR). Debris objects in space refer to the collection of defunct objects orbiting the Earth. Examples of debris include non-operational satellites, rocket bodies, and fragments generated from explosions, collisions, or faulty payload assembly.

Loading next visibility...
Identifier
41321, 2012-026H
Orbit
HEO
Country
Flag of CISCIS
Related business
Manufacturer
Khrunichev
Mission
Spacecraft
Bus & Motor
Unknown
Mass
Unknown
Launch date (UTC)
2012-05-17 (14 years ago)
Launch vehicle
Unknown
Launch site
Tyuratam Missile And Space Complex (TTMTR)
Object type
Payload
Rocket body
Debris
Shape & HBR
Unknown shape, 1.1 m
Radar Cross Section
Medium (>0.1 m² and <1 m²)

Expand to show TLE details & history
Last TLE update: 4 days ago

TLE from 4 days ago
0 BREEZE-M DEB
1 41321U 12026H   25350.91367289 -.00000039  00000-0  00000-0 0  9995
2 41321  10.1016 153.8211 4090366  15.6913 353.9137  1.77039071 64507
Epoch: 2025-12-16T21:55Z
TLE epoch observation values (Epoch: 2025-12-16T21:55:41.337Z)
Latitude
Longitude
99.0548°
Altitude
10,894.876 km
Speed
5.687 km/s
True Right ascension
10h 15m 04s
True Declination
0° 00' 00"
Sunlit
Object was in daylight at epoch
Visualization orbit readout
Latitude
Unknown
Longitude
Unknown
Altitude
Unknown
Speed
Unknown
Apparent Right ascension
Unknown
Apparent Declination
Unknown
Sunlit
N/A
Visualization observer readout
Local Sidereal Time
22:19:58
Azimuth
Unknown
Elevation
Unknown
Doppler factor
Unknown
Orbital elements
Apogee altitude
34,294.949 km
Perigee altitude
10,680.543 km
Semi-major axis
28,865.883 km
Eccentricity
0.40904
Inclination
10.1016°
RAAN
153.8211°
Arg. of periapsis
15.6913°
True anomaly
344.21387°
Mean anomaly
353.9137°
Eccentric anomaly
349.73896°
Mean motion
0.44255 °/min
Orbital period
813.46 mins
BSTAR
0
Loading maneuver chart data...
Computing Atmospheric mass density...
Loading historical data...
Loading historical data...
Loading historical data...
Loading historical data...
Loading historical data...
Loading historical data...
Loading historical data...

Documentation

Showing up to 5 results
|